Satellite: PO-28
Catalog number: 22829
Epoch time:      08107.81547238
Element set:     922
Inclination:      098.3586 deg
RA of node:       072.2094 deg
Eccentricity:    0.0010749
Arg of perigee:   052.9059 deg
Mean anomaly:     307.3105 deg
Mean motion:   14.30186286 rev/day
Decay rate:        6.0e-08 rev/day^2
Epoch rev:           75935
Checksum:              319

Satellite: GO-32
Catalog number: 25397
Epoch time:      08107.73243941
Element set:     576
Inclination:      098.3703 deg
RA of node:       145.9129 deg
Eccentricity:    0.0002143
Arg of perigee:   078.4582 deg
Mean anomaly:     281.6856 deg
Mean motion:   14.23141085 rev/day
Decay rate:       -9.0e-07 rev/day^2
Epoch rev:           50747
Checksum:              312

Satellite: MO-46
Catalog number: 26548
Epoch time:      08107.81254484
Element set:      74
Inclination:      064.5585 deg
RA of node:       320.1871 deg
Eccentricity:    0.0023005
Arg of perigee:   333.0647 deg
Mean anomaly:     026.9233 deg
Mean motion:   14.83248835 rev/day
Decay rate:      -1.15e-06 rev/day^2
Epoch rev:           40871
Checksum:              298

Satellite: NO-44
Catalog number: 26931
Epoch time:      08107.43726943
Element set:     855
Inclination:      067.0509 deg
RA of node:       083.7300 deg
Eccentricity:    0.0005845
Arg of perigee:   277.9332 deg
Mean anomaly:     082.1107 deg
Mean motion:   14.29520086 rev/day
Decay rate:       2.20e-06 rev/day^2
Epoch rev:           34158
Checksum:              295

Satellite: SO-50
Catalog number: 27607
Epoch time:      08108.58274407
Element set:     580
Inclination:      064.5582 deg
RA of node:       237.6904 deg
Eccentricity:    0.0083396
Arg of perigee:   291.2200 deg
Mean anomaly:     067.9973 deg
Mean motion:   14.71345936 rev/day
Decay rate:       -6.0e-08 rev/day^2
Epoch rev:           28605
Checksum:              324

Satellite: CO-55
Catalog number: 27844
Epoch time:      08107.59608466
Element set:     283
Inclination:      098.7177 deg
RA of node:       116.7164 deg
Eccentricity:    0.0009189
Arg of perigee:   297.6046 deg
Mean anomaly:     062.4197 deg
Mean motion:   14.20572339 rev/day
Decay rate:        5.0e-07 rev/day^2
Epoch rev:           24869
Checksum:              344

Satellite: CO-57
Catalog number: 27848
Epoch time:      08108.57210248
Element set:     235
Inclination:      098.7177 deg
RA of node:       116.7865 deg
Eccentricity:    0.0009250
Arg of perigee:   298.6512 deg
Mean anomaly:     061.3742 deg
Mean motion:   14.20382780 rev/day
Decay rate:        3.0e-07 rev/day^2
Epoch rev:           24880
Checksum:              313

Satellite: AO-51
Catalog number: 28375
Epoch time:      08107.58030494
Element set:    0079
Inclination:      098.0774 deg
RA of node:       135.6013 deg
Eccentricity:    0.0084628
Arg of perigee:   340.4428 deg
Mean anomaly:     019.3521 deg
Mean motion:   14.40603783 rev/day
Decay rate:        1.9e-07 rev/day^2
Epoch rev:           19953
Checksum:              308

Satellite: CO-56
Catalog number: 28941
Epoch time:      08107.95634881
Element set:    0994
Inclination:      098.1018 deg
RA of node:       210.4600 deg
Eccentricity:    0.0176270
Arg of perigee:   262.8454 deg
Mean anomaly:     095.2732 deg
Mean motion:   15.53529645 rev/day
Decay rate:     1.5117e-04 rev/day^2
Epoch rev:           12052
Checksum:              317

Satellite: CP4
Catalog number: 31122
Epoch time:      08107.75639558
Element set:    0317
Inclination:      098.0470 deg
RA of node:       175.6164 deg
Eccentricity:    0.0086230
Arg of perigee:   159.0145 deg
Mean anomaly:     201.4610 deg
Mean motion:   14.55112461 rev/day
Decay rate:       5.52e-06 rev/day^2
Epoch rev:           05314
Checksum:              268

Satellite: CP3
Catalog number: 31128
Epoch time:      08107.86404929
Element set:    0309
Inclination:      098.0419 deg
RA of node:       173.8824 deg
Eccentricity:    0.0103704
Arg of perigee:   163.9160 deg
Mean anomaly:     196.5359 deg
Mean motion:   14.51934466 rev/day
Decay rate:       -4.7e-07 rev/day^2
Epoch rev:           05303
Checksum:              307

Satellite: LIBERT
Catalog number: 31129
Epoch time:      08108.73781295
Element set:     898
Inclination:      098.0430 deg
RA of node:       174.7567 deg
Eccentricity:    0.0103480
Arg of perigee:   161.2558 deg
Mean anomaly:     199.2476 deg
Mean motion:   14.52026047 rev/day
Decay rate:       3.39e-06 rev/day^2
Epoch rev:            5314
Checksum:              311

/EX
SB KEPS @ AMSAT  $ORB08108.W
Orbital Elements  08108.WEATHER

HR AMSAT ORBITAL ELEMENTS FOR WEATHER SATELLITES
FROM WA5QGD FORT WORTH,TX April 17, 2008
Send Subscribe/unsubscribe to KEPS at 
http://www.amsat.org/mailman/listinfo/keps
BID: ORB08108.W
TO ALL RADIO AMATEURS BT

Satellite: NOAA-10
Catalog number: 16969
Epoch time:      08107.60753080
Element set:    0085
Inclination:      098.7272 deg
RA of node:       129.6899 deg
Eccentricity:    0.0012350
Arg of perigee:   005.5500 deg
Mean anomaly:     354.5823 deg
Mean motion:   14.27356331 rev/day
Decay rate:       -2.0e-08 rev/day^2
Epoch rev:           12265
Checksum:              291

